JAS-2 (FO-29)

Last updated on Tue Dec 03 2024 00:03:02 GMT+0000 (Coordinated Universal Time)

1 24278U 96046B 24337.55064371 .00000023 00000+0 56728-4 0 9994 2 24278 98.5873 250.1618 0350949 112.1453 251.7325 13.53223491397204
UTC large
Height (km)
Speed (km/s)
/
Latitude / Longitude
Inclination (degrees)
Orbital Period (minutes)
Azimuth
Elevation
Range (km)
Doppler Factor

Next 0 passes for location: London (51.5072 / 0.1276)

Sorry there are no passes over London.